Hourly Data Report for October 08, 2017

All times are specified in Local Standard Time (LST). Add 1 hour to adjust for Daylight Saving Time where and when it is observed.

OTTAWA INTL A
ONTARIO

45°19'00.000" N
75°40'00.000" W
114.90 m
6106001
71628
YOW

Download Data

Hourly Data (October 2017)
Hourly Data Report for October 8, 2017
Temp Definition
°C
Dew Point Temp Definition
°C
Rel Hum Definition
%
Wind Dir Definition
10's deg

Wind Spd Definition
km/h
Visibility Definition
km
Stn Press Definition
kPa
Hmdx Definition


Wind Chill Definition


Weather Definition


TIME
00:00 Legend Double Dagger 18.4 15.1 81 17 12 24.1 99.30     LegendNANA
01:00 Legend Double Dagger 18.7 15.3 80 16 14 24.1 99.23     Mostly Cloudy
02:00 Legend Double Dagger 20.5 15.9 74 18 14 24.1 99.12 25   LegendNANA
03:00 Legend Double Dagger 19.3 15.7 80 16 16 24.1 99.01     LegendNANA
04:00 Legend Double Dagger 19.7 16.1 80 17 17 24.1 98.90     Rain Showers
05:00 Legend Double Dagger 18.6 17.4 93 16 23 24.1 98.67     Rain Showers
06:00 Legend Double Dagger 20.2 18.8 91 19 28 16.1 98.69 27   Rain Showers
07:00 Legend Double Dagger 20.6 18.6 88 21 27 24.1 98.77 27   Mostly Cloudy
08:00 Legend Double Dagger 21.2 16.9 76 23 42 24.1 98.89 26   LegendNANA
09:00 Legend Double Dagger 21.2 15.3 69 25 32 24.1 99.06 25   LegendNANA
10:00 Legend Double Dagger 20.8 15.2 70 24 27 24.1 99.22 25   Cloudy
11:00 Legend Double Dagger 21.3 14.6 65 25 32 24.1 99.36 25   LegendNANA
12:00 Legend Double Dagger 21.8 14.8 64 24 26 24.1 99.44 26   LegendNANA
13:00 Legend Double Dagger 22.0 14.8 63 25 25 24.1 99.50 26   Mostly Cloudy
14:00 Legend Double Dagger 22.5 14.6 61 25 28 24.1 99.54 26   LegendNANA
15:00 Legend Double Dagger 21.3 14.8 66 22 26 24.1 99.59 25   LegendNANA
16:00 Legend Double Dagger 21.3 15.1 67 23 16 24.1 99.65 25   Mostly Cloudy
17:00 Legend Double Dagger 20.2 15.5 74 21 8 24.1 99.77     LegendNANA
18:00 Legend Double Dagger 18.0 14.9 82 20 10 24.1 99.78     LegendNANA
19:00 Legend Double Dagger 17.3 14.8 85 18 9 24.1 99.88     Mostly Cloudy
20:00 Legend Double Dagger 16.4 14.5 88 20 7 24.1 99.93     LegendNANA
21:00 Legend Double Dagger 15.8 14.3 91 21 8 24.1 99.99     LegendNANA
22:00 Legend Double Dagger 15.2 14.0 92 18 10 24.1 100.00     Mostly Cloudy
23:00 Legend Double Dagger 14.6 13.7 94 19 10 24.1 100.03     LegendNANA

Notes on Data Quality.

Legend

  • E = Estimated
  • M = Missing
  • NA = Not Available
  • ‡ = Partner data that is not subject to review by the National Climate Archives
Date modified: